Lid_Strength_Index
2 2 2 1 1 1 1 1 1 1 1 1 1 1 1 1 1 4 7 6 2 1 2 4 4 5 5 5 3 4 11 13 11 11 9 6 7 5 4 5 5 5 5 4 2
2 2 2 1 1 1 1 1 1 1 1 1 1 1 1 1 4 7 4 2 1 2 6 7 8 6 8 6 5 8 11 11 7 7 8 6 6 6 6 7 7 6 4 3 3
2 1 1 1 1 1 1 1 1 1 1 1 1 1 1 2 8 9 2 1 2 3 5 4 5 7 9 8 7 7 11 8 7 6 6 7 6 5 7 8 6 6 6 4 4
1 1 1 1 1 1 1 2 1 1 1 1 1 1 1 4 13 7 3 3 3 4 5 5 7 9 10 10 8 10 8 7 7 6 7 8 6 7 6 6 4 4 4 4 5
1 1 1 1 2 2 2 2 1 1 1 2 1 2 4 8 8 4 3 4 5 4 6 6 7 8 10 10 9 10 10 9 8 7 7 6 8 7 7 4 3 4 4 5 4
2 2 2 2 2 2 2 2 2 2 2 2 1 2 5 10 4 4 4 4 5 4 5 4 5 4 7 7 8 8 9 9 9 9 8 8 8 7 6 4 4 4 5 4 4
2 2 2 2 2 2 2 2 2 2 2 1 1 2 6 7 4 3 3 4 3 2 3 2 2 4 5 7 5 7 10 9 9 9 10 7 10 9 6 5 5 5 4 4 4
3 3 3 2 2 2 2 2 2 2 1 1 1 3 7 3 2 2 2 2 0 0 1 1 1 3 5 4 6 8 9 13 10 9 9 8 14 7 5 6 6 5 5 5 4
3 2 2 2 2 2 2 2 3 2 1 1 3 5 8 2 4 2 1 2 1 1 1 1 2 5 5 9 10 9 13 12 11 8 8 9 12 7 5 6 6 6 5 5 5
2 2 2 2 2 2 3 3 4 2 3 2 3 6 5 7 4 2 1 1 3 3 4 5 6 8 8 10 16 12 12 11 12 9 8 10 11 8 6 6 6 6 5 5 5
3 3 2 2 2 3 4 5 7 8 6 8 7 8 6 4 2 2 1 2 3 5 9 7 10 12 9 8 8 9 11 12 11 9 9 10 10 9 7 7 7 6 6 5 5
3 3 3 3 3 4 4 7 8 6 11 6 6 6 4 4 6 4 2 5 7 9 7 9 12 8 7 8 9 10 11 12 10 9 10 11 12 8 7 7 6 6 6 6 5
3 3 3 3 4 4 6 7 4 4 10 8 6 7 5 4 7 6 3 5 7 9 9 11 10 8 8 10 11 11 12 11 11 9 9 11 13 11 8 7 6 5 5 5 5
4 3 3 4 5 5 6 4 4 4 12 10 9 7 5 5 8 4 2 5 7 10 9 10 8 9 10 11 10 14 9 10 11 12 15 9 17 11 9 9 8 7 6 5 5
4 4 4 4 5 6 5 4 4 7 18 10 9 5 5 8 7 6 2 5 9 9 9 11 10 11 13 11 9 12 8 10 10 13 13 12 16 12 9 10 9 7 6 6 5
4 4 5 5 5 5 4 5 7 13 18 12 9 10 9 8 8 6 6 5 5 9 9 10 8 10 11 9 9 8 10 11 12 13 18 14 15 14 11 10 8 7 6 6 5
4 4 6 5 6 4 5 8 13 16 12 12 12 10 11 11 10 9 10 10 11 14 14 13 12 9 9 12 10 11 13 17 19 19 18 13 15 15 10 8 7 7 6 5 5
5 6 7 6 5 5 7 10 18 18 16 11 11 11 13 12 11 11 11 12 9 10 15 18 19 11 10 11 12 12 12 15 20 19 17 13 17 13 9 7 6 5 5 5 5
6 7 6 6 5 6 8 15 16 16 12 12 12 14 14 13 12 12 12 13 10 11 17 18 17 11 10 10 10 13 15 10 16 16 17 17 14 10 9 8 7 7 6 6 5
8 9 7 7 6 7 10 15 16 13 11 12 15 15 16 14 13 12 13 11 11 11 12 14 19 13 11 11 10 11 9 16 16 21 22 18 16 15 12 10 9 8 8 6 5
9 11 7 7 7 9 14 15 16 11 11 13 14 14 14 14 13 13 14 11 11 12 12 13 16 16 12 13 14 13 14 13 14 16 21 21 17 11 11 10 9 8 7 6 6
10 13 8 7 11 17 14 16 12 12 10 11 11 12 13 13 14 14 14 13 10 11 15 13 16 19 15 13 11 11 13 13 17 19 16 18 17 10 10 9 8 8 7 6 6
13 12 8 8 13 14 15 15 13 13 12 12 12 11 11 13 16 14 13 10 10 12 14 14 17 19 17 14 12 13 13 13 13 14 18 20 18 10 9 9 8 9 10 10 11
13 14 12 11 13 14 15 16 16 12 12 11 12 11 13 15 13 14 13 12 11 11 11 13 16 17 20 18 16 16 14 13 14 18 17 17 16 13 12 12 11 11 12 12 13
14 17 16 14 13 13 15 16 16 15 12 11 13 14 14 17 16 17 14 13 12 11 13 15 19 17 17 16 15 15 15 15 15 15 17 15 16 15 13 13 12 13 13 13 14
14 15 15 16 15 14 14 15 15 14 13 14 15 14 14 16 15 17 15 14 15 13 14 14 19 18 18 14 15 17 17 16 16 17 16 16 17 15 14 12 13 13 13 14 14
13 13 11 16 14 14 14 14 14 13 13 12 12 14 15 14 12 11 11 11 13 14 15 16 18 19 20 17 17 19 19 17 16 17 17 19 17 16 17 17 14 14 14 14 14